[[{"header":{"parameterUnit":"m.s-1","parameterCategory":1,"la1":30.2991,"la2":30.254,"lo1":-89.0895,"lo2":-89.0444,"dy":0.0017,"dx":0.0017,"nx":28,"ny":28,"refTime":"2024-06-06T09:00:00:Z","depth":0,"parameterNumber":2,"parameterNumberName":"U-component_of_WINDS"},"data":[0,0,0,0,0,0,0,0,0,0,0,0,0,0,0,0,0,0,0,0,0,0,0,0,0,0,0,0,0,0,0,0,0,0,0,0,0,0,0,0,0,0,0,0,0,0,0,0,0,0,0,0,0,0,0,0,0,0,0.1964,0.1966,0,0.2094,0.2096,0.2097,0.2169,0.2169,0.2169,0.217,0.2312,0.2315,0.2319,0,0,0,0,0,0,0,0,0,0,0,0,0,0.1787,0.179,0.1964,0.1966,0.1968,0.2094,0.2096,0.2098,0.2169,0.2169,0.2169,0.217,0.231,0.2315,0.2319,0,0,0,0,0,0,0,0,0,0,0,0,0,0.1886,0.1791,0.1964,0.2018,0.2024,0.2094,0.2096,0.2098,0.2169,0.2169,0.217,0.217,0.2309,0.2314,0.232,0.2348,0,0,0.2336,0.2339,0,0,0,0,0,0,0,0,0.188,0.1892,0.2009,0.2015,0.2022,0.2115,0.2086,0.2182,0.2169,0.2114,0.217,0.217,0.2247,0.2257,0.2281,0.2354,0.2361,0.2337,0.234,0.2342,0.2344,0,0,0,0,0,0,0,0.1873,0.1887,0.2016,0.201,0.2018,0.2039,0.2053,0.2104,0.2178,0.2119,0.2125,0.2138,0.2251,0.2276,0.2285,0.2363,0.2337,0.2341,0.2345,0.2347,0.2467,0.2467,0,0,0,0,0,0,0.1856,0.1881,0.2012,0.202,0.195,0.2042,0.2058,0.2085,0.2177,0.2191,0.2138,0.2141,0.2267,0.2279,0.2291,0.233,0.2342,0.2347,0.2351,0.2467,0.2467,0.2467,0,0,0,0,0,0,0.1852,0.1867,0.2007,0.1952,0.1971,0.2045,0.2075,0.2088,0.2113,0.2192,0.2206,0.215,0.2267,0.2283,0.2333,0.2336,0.235,0.2355,0.2467,0.2467,0.2467,0.2408,0,0,0,0,0,0,0.1847,0.1865,0.1874,0.1951,0.1974,0.2043,0.2075,0.209,0.2121,0.2127,0.2207,0.222,0.2269,0.2324,0.2338,0.2344,0.2359,0.2467,0.2467,0.2467,0.241,0.2406,0.2403,0,0,0,0,0,0.184,0.1855,0.1875,0.189,0.1986,0.2043,0.2057,0.2109,0.2121,0.2133,0.2183,0.2218,0.2333,0.2329,0.2345,0.2352,0.2467,0.2467,0.2467,0.2412,0.2407,0.2403,0,0,0,0,0,0,0.178,0.1866,0.1889,0.1928,0.1977,0.2055,0.2071,0.2102,0.2152,0.2155,0.2222,0.2239,0.2283,0.2323,0.2316,0.2385,0.2404,0.2407,0.2357,0.2353,0.2349,0.2339,0.2364,0,0,0,0,0,0.177,0.1806,0.1881,0.1909,0.1932,0.1997,0.2024,0.206,0.2116,0.2138,0.2192,0.2247,0.2296,0.2326,0.2376,0.2416,0.2436,0.243,0.2426,0.2422,0.2424,0.245,0.2448,0.2466,0.2466,0.2466,0,0,0.1752,0.1804,0.1823,0.1898,0.1941,0.1979,0.2014,0.2054,0.2084,0.2145,0.2194,0.2236,0.2302,0.2347,0.237,0.2382,0.2424,0.2422,0.2419,0.2423,0.245,0.2448,0.2446,0.2466,0.2466,0.2466,0,0,0.174,0.1781,0.1809,0.185,0.1913,0.1957,0.1963,0.2036,0.2065,0.2115,0.2161,0.22,0.2282,0.2327,0.2361,0.2365,0.2399,0.238,0.236,0.2384,0.2383,0.2382,0.2384,0.2384,0.2381,0.2381,0.2381,0,0.171,0.1767,0.182,0.1857,0.1889,0.1942,0.1972,0.2011,0.2088,0.2111,0.2122,0.2226,0.2274,0.2331,0.2332,0.2357,0.2368,0.2371,0.2378,0.2378,0.2378,0.2381,0.2381,0.2378,0.2379,0.2379,0.2379,0,0.1729,0.1768,0.1783,0.1853,0.1887,0.192,0.198,0.2009,0.2043,0.2085,0.2137,0.2196,0.2258,0.2275,0.2309,0.2337,0.2342,0.2365,0.2386,0.2372,0.2376,0.2378,0.2374,0.2375,0.2376,0.2377,0,0,0.1681,0.1779,0.1783,0.1816,0.1889,0.1922,0.1959,0.2017,0.2041,0.2093,0.2126,0.2194,0.2216,0.2254,0.2294,0.2315,0.2315,0.2336,0.2338,0.233,0.2351,0.2333,0.2333,0.2338,0.2338,0.2339,0.2345,0,0.1679,0.1744,0.1793,0.184,0.1878,0.1929,0.1962,0.2012,0.2053,0.2094,0.2141,0.2188,0.2212,0.2235,0.2258,0.231,0.232,0.231,0.2373,0.2374,0.2354,0.2335,0.2317,0.232,0.2347,0.2348,0.2348,0,0.1685,0.1732,0.1782,0.1851,0.1869,0.1897,0.1954,0.1991,0.205,0.2079,0.2121,0.2162,0.2205,0.2221,0.2284,0.2276,0.2305,0.2334,0.2336,0.2344,0.236,0.2344,0.2323,0.2323,0.2351,0.235,0.235,0,0.1646,0.1722,0.1761,0.1788,0.187,0.1888,0.1924,0.1983,0.2014,0.2066,0.2087,0.2144,0.2175,0.222,0.2276,0.2282,0.2333,0.2354,0.236,0.2358,0.2369,0.2368,0.2352,0.2386,0.2386,0.2386,0.2386,0,0.1639,0.1667,0.1745,0.1769,0.1804,0.1861,0.1895,0.1936,0.1987,0.2023,0.2072,0.2105,0.2177,0.2219,0.2264,0.231,0.2324,0.235,0.2361,0.2345,0.2342,0.2366,0.2367,0.2386,0.2386,0.2386,0.2386,0,0.1601,0.1653,0.17,0.1773,0.1792,0.1815,0.1879,0.1907,0.195,0.1994,0.2008,0.2078,0.213,0.219,0.2263,0.2293,0.2336,0.2353,0.2315,0.2322,0.2325,0.2324,0.2325,0.2329,0.2359,0.2358,0.2358,0,0.1592,0.1615,0.169,0.1716,0.1749,0.1791,0.1823,0.1881,0.1913,0.1981,0.2001,0.2056,0.2104,0.2186,0.2245,0.2301,0.232,0.2317,0.233,0.2313,0.2321,0.2319,0.2323,0.2313,0.2313,0.2312,0.2312,0,0.1572,0.1597,0.164,0.1692,0.1728,0.1772,0.1819,0.1838,0.1906,0.194,0.1993,0.2029,0.2103,0.2158,0.2222,0.2262,0.2299,0.2307,0.2312,0.2296,0.2273,0.2286,0.2306,0.2307,0.2308,0.2308,0.2308,0.2308,0.155,0.1573,0.1629,0.1675,0.1716,0.1758,0.1787,0.1833,0.1877,0.1939,0.1972,0.2024,0.2085,0.2174,0.2213,0.2257,0.2269,0.2275,0.2277,0.2278,0.2274,0.2265,0.2269,0.2269,0.2269,0.2269,0.2269,0,0.1533,0.1571,0.1613,0.1675,0.1712,0.1741,0.1794,0.1824,0.1868,0.192,0.1965,0.2026,0.208,0.2142,0.2201,0.2224,0.2243,0.2238,0.2237,0.2246,0.2259,0.2249,0.2222,0.2222,0.2222,0.2222,0.2222,0.2222,0.1528,0.1569,0.16,0.1662,0.1702,0.1751,0.1779,0.1819,0.1861,0.1926,0.197,0.2009,0.2066,0.2129,0.2181,0.2198,0.2218,0.2208,0.223,0.2241,0.2245,0.2249,0.224,0.2211,0.2211,0.2214,0.2214,0.2214]},{"header":{"parameterUnit":"m.s-1","parameterCategory":1,"la1":30.2991,"la2":30.254,"lo1":-89.0895,"lo2":-89.0444,"dy":0.0017,"dx":0.0017,"nx":28,"ny":28,"refTime":"2024-06-06T09:00:00:Z","depth":0,"parameterNumber":3,"parameterNumberName":"V-component_of_WINDS"},"data":[0,0,0,0,0,0,0,0,0,0,0,0,0,0,0,0,0,0,0,0,0,0,0,0,0,0,0,0,0,0,0,0,0,0,0,0,0,0,0,0,0,0,0,0,0,0,0,0,0,0,0,0,0,0,0,0,0,0,1.6474,1.6474,0,1.6472,1.6472,1.6472,1.6458,1.6458,1.6457,1.6457,1.6455,1.6455,1.6455,0,0,0,0,0,0,0,0,0,0,0,0,0,1.6464,1.6465,1.6474,1.6474,1.6474,1.6472,1.6472,1.6472,1.6458,1.6458,1.6457,1.6457,1.6455,1.6455,1.6455,0,0,0,0,0,0,0,0,0,0,0,0,0,1.6466,1.6465,1.6474,1.6467,1.6466,1.6472,1.6472,1.6472,1.6458,1.6458,1.6457,1.6456,1.6455,1.6455,1.6455,1.6469,0,0,1.6457,1.6457,0,0,0,0,0,0,0,0,1.6466,1.6467,1.6468,1.6467,1.6466,1.6465,1.6468,1.6471,1.6458,1.6461,1.6457,1.6456,1.6458,1.6459,1.6459,1.6468,1.6468,1.6457,1.6457,1.6457,1.6457,0,0,0,0,0,0,0,1.6466,1.6467,1.6473,1.6468,1.6467,1.6463,1.6463,1.6469,1.6463,1.6461,1.646,1.646,1.6458,1.6459,1.6459,1.6468,1.6457,1.6457,1.6457,1.6457,1.6489,1.6489,0,0,0,0,0,0,1.6467,1.6467,1.6473,1.6473,1.6465,1.6464,1.6464,1.6466,1.6463,1.6462,1.646,1.6459,1.6459,1.6459,1.6459,1.6474,1.6457,1.6457,1.6458,1.6488,1.6489,1.6489,0,0,0,0,0,0,1.6467,1.6468,1.6473,1.647,1.647,1.6465,1.6467,1.6466,1.6467,1.6462,1.6461,1.6462,1.6458,1.6459,1.6466,1.6474,1.6458,1.6458,1.6487,1.6488,1.6489,1.6505,0,0,0,0,0,0,1.6467,1.6468,1.6473,1.647,1.647,1.6481,1.6468,1.6466,1.6468,1.6466,1.6464,1.6463,1.6458,1.6466,1.6467,1.6474,1.6458,1.6487,1.6488,1.6489,1.6504,1.6506,1.6509,0,0,0,0,0,1.6466,1.6477,1.6473,1.6474,1.6476,1.6481,1.6482,1.6475,1.6469,1.6473,1.647,1.6463,1.6473,1.6467,1.6468,1.6476,1.6486,1.6487,1.6489,1.6503,1.6506,1.6508,0,0,0,0,0,0,1.6481,1.6477,1.6472,1.6482,1.6482,1.6479,1.6485,1.6479,1.6481,1.6479,1.6471,1.6471,1.648,1.6479,1.6472,1.6488,1.6478,1.648,1.6489,1.6492,1.6494,1.6494,1.6459,0,0,0,0,0,1.6485,1.6489,1.6486,1.6495,1.6495,1.649,1.6492,1.6487,1.6487,1.6487,1.6484,1.6484,1.6487,1.649,1.6492,1.6504,1.6503,1.651,1.6512,1.6514,1.6515,1.6521,1.6524,1.6494,1.6494,1.6493,0,0,1.6494,1.6492,1.6495,1.6498,1.6497,1.6502,1.649,1.6495,1.6499,1.6488,1.6495,1.6493,1.6493,1.6502,1.6507,1.6501,1.6524,1.6516,1.6517,1.6517,1.6523,1.6526,1.6528,1.6494,1.6494,1.6494,0,0,1.6512,1.6512,1.652,1.6519,1.6519,1.6516,1.6518,1.6515,1.6514,1.6521,1.6513,1.6517,1.6523,1.6522,1.6523,1.6543,1.6536,1.6544,1.6556,1.6562,1.6564,1.6566,1.6573,1.6576,1.6545,1.6545,1.6545,0,1.6523,1.653,1.6524,1.653,1.6532,1.6522,1.653,1.653,1.6531,1.6532,1.6526,1.6533,1.6532,1.6542,1.6547,1.6548,1.6549,1.6544,1.6565,1.6567,1.6568,1.6575,1.6577,1.6546,1.6546,1.6546,1.6546,0,1.6544,1.6549,1.6555,1.6556,1.6558,1.6565,1.656,1.6563,1.6559,1.6556,1.6564,1.6562,1.6564,1.6566,1.6562,1.6576,1.6572,1.6566,1.6556,1.6572,1.6578,1.6581,1.6547,1.6547,1.6547,1.6547,0,0,1.657,1.6568,1.6571,1.6571,1.6571,1.6574,1.6581,1.6583,1.6586,1.6587,1.6592,1.6598,1.6592,1.6592,1.6588,1.6593,1.6609,1.6586,1.6586,1.659,1.6624,1.6628,1.6631,1.6605,1.6605,1.6605,1.6624,0,1.6588,1.6599,1.6594,1.6606,1.661,1.6602,1.6608,1.6608,1.6606,1.661,1.6607,1.6611,1.6603,1.6603,1.6608,1.6606,1.6615,1.6605,1.6609,1.6609,1.6609,1.6634,1.6639,1.6657,1.6626,1.6626,1.6627,0,1.6609,1.6612,1.6624,1.6623,1.6625,1.663,1.6632,1.6636,1.6636,1.6634,1.6635,1.663,1.6636,1.6627,1.6636,1.6628,1.663,1.6629,1.663,1.6629,1.6619,1.6635,1.6662,1.6664,1.663,1.663,1.663,0,1.6627,1.6633,1.6641,1.6642,1.6641,1.6645,1.6645,1.6645,1.6647,1.6649,1.665,1.6653,1.6654,1.6656,1.6652,1.6645,1.6661,1.6651,1.6659,1.666,1.6663,1.6662,1.669,1.6665,1.6664,1.6664,1.6664,0,1.6647,1.6655,1.6649,1.6654,1.6663,1.6658,1.6666,1.6665,1.6665,1.667,1.6663,1.6667,1.6661,1.6665,1.6662,1.6669,1.667,1.6669,1.6668,1.6669,1.6669,1.667,1.6668,1.6665,1.6665,1.6665,1.6665,0,1.6668,1.6665,1.6673,1.6672,1.6672,1.6678,1.6677,1.6681,1.6679,1.6685,1.6686,1.6683,1.6687,1.6683,1.6687,1.6685,1.6695,1.6692,1.6695,1.6694,1.6703,1.6702,1.6731,1.6735,1.6707,1.6708,1.6708,0,1.668,1.6686,1.6686,1.6689,1.6689,1.6694,1.6696,1.6691,1.6694,1.6695,1.6699,1.6703,1.6706,1.6713,1.6711,1.6714,1.6711,1.6721,1.6711,1.6713,1.6711,1.671,1.6711,1.6723,1.6723,1.6723,1.6724,0,1.6703,1.6701,1.6705,1.6708,1.6711,1.6714,1.6715,1.6718,1.6713,1.6716,1.6721,1.6723,1.6727,1.6731,1.6734,1.6733,1.6728,1.6727,1.6729,1.673,1.6732,1.6731,1.67,1.6726,1.6726,1.6726,1.6726,1.6725,1.672,1.6725,1.6726,1.673,1.6731,1.6733,1.6737,1.6736,1.674,1.6743,1.674,1.6746,1.6746,1.6749,1.6749,1.6754,1.6749,1.6752,1.6753,1.6754,1.6755,1.6731,1.6754,1.6754,1.6754,1.6754,1.6754,0,1.6742,1.6742,1.6746,1.6749,1.6753,1.6748,1.675,1.6753,1.6758,1.6759,1.6762,1.6768,1.6772,1.677,1.6773,1.6777,1.6775,1.6778,1.6778,1.6778,1.6759,1.6756,1.678,1.678,1.678,1.678,1.678,1.678,1.6754,1.6762,1.6761,1.677,1.677,1.6775,1.6777,1.6779,1.678,1.6786,1.679,1.6789,1.6789,1.6792,1.6796,1.6795,1.6796,1.6801,1.6799,1.6782,1.6779,1.6776,1.6774,1.6801,1.6801,1.6818,1.6818,1.6818]}]]